When you browse on this site, cookies collect data to enhance your experience and personalize the content and advertising you see.
Visit our Privacy Policy to learn more. By continuing to use the site, you agree to this use of cookies and data.
  • In Latvia
  • List of Countries
  • For 7 days
  • Water Temperature
  • Weather Map
  • Weather Widgets
  • user-avatar
    Login

    Hourly Weather Ondjiwa

    Today, 27 January, Monday

    Time Temperature Precipitation Wind Pressure Humidity
    00:00 +25°C° 0 mm 1 mps 667 mmHg 74%
    01:00 +25°C° 0 mm 1 mps 667 mmHg 75%
    02:00 +24°C° 0.2 mm 1 mps 667 mmHg 77%
    03:00 +24°C° 0.2 mm 1 mps 667 mmHg 79%
    04:00 +23°C° 0.2 mm 1 mps 666 mmHg 81%
    05:00 +23°C° 0.4 mm 1 mps 667 mmHg 80%
    06:00 +23°C° 0.4 mm 1 mps 667 mmHg 80%
    07:00 +24°C° 0.4 mm 1 mps 668 mmHg 79%
    08:00 +26°C° 0.3 mm 1 mps 668 mmHg 70%
    09:00 +29°C° 0.3 mm 1 mps 669 mmHg 60%
    10:00 +29°C° 0.3 mm 0 mps 669 mmHg 51%
    11:00 +32°C° 0 mm 1 mps 669 mmHg 47%
    12:00 +32°C° 0 mm 2 mps 668 mmHg 42%
    13:00 +34°C° 0 mm 2 mps 668 mmHg 38%
    14:00 +32°C° 0 mm 2 mps 667 mmHg 41%
    15:00 +32°C° 0 mm 2 mps 666 mmHg 45%
    16:00 +31°C° 0 mm 2 mps 666 mmHg 48%
    17:00 +30°C° 0.1 mm 2 mps 666 mmHg 50%
    18:00 +28°C° 0.1 mm 2 mps 666 mmHg 52%
    19:00 +27°C° 0.1 mm 2 mps 666 mmHg 54%
    20:00 +26°C° 0.3 mm 2 mps 666 mmHg 59%
    21:00 +25°C° 0.3 mm 2 mps 667 mmHg 65%
    22:00 +24°C° 0.3 mm 3 mps 667 mmHg 70%
    23:00 +24°C° 0 mm 2 mps 667 mmHg 73%

    Tomorrow, 28 January, Tuesday

    Time Temperature Precipitation Wind Pressure Humidity
    00:00 +24°C° 0 mm 2 mps 667 mmHg 76%
    01:00 +23°C° 0 mm 2 mps 667 mmHg 78%
    02:00 +23°C° 0.5 mm 2 mps 667 mmHg 80%
    03:00 +23°C° 0.5 mm 1 mps 667 mmHg 81%
    04:00 +23°C° 0.5 mm 1 mps 666 mmHg 82%
    05:00 +23°C° 0 mm 1 mps 667 mmHg 80%
    06:00 +24°C° 0 mm 1 mps 667 mmHg 79%
    07:00 +24°C° 0 mm 2 mps 667 mmHg 77%
    08:00 +26°C° 0 mm 2 mps 668 mmHg 68%
    09:00 +28°C° 0 mm 2 mps 668 mmHg 59%
    10:00 +30°C° 0 mm 2 mps 669 mmHg 50%
    11:00 +31°C° 0 mm 2 mps 668 mmHg 46%
    12:00 +34°C° 0 mm 3 mps 668 mmHg 41%
    13:00 +35°C° 0 mm 3 mps 667 mmHg 36%
    14:00 +35°C° 0 mm 3 mps 667 mmHg 37%
    15:00 +34°C° 0 mm 2 mps 667 mmHg 38%
    16:00 +34°C° 0 mm 2 mps 666 mmHg 39%
    17:00 +30°C° 0.8 mm 2 mps 666 mmHg 49%
    18:00 +28°C° 0.8 mm 3 mps 665 mmHg 60%
    19:00 +25°C° 0.8 mm 3 mps 665 mmHg 70%
    20:00 +25°C° 0.8 mm 3 mps 665 mmHg 73%
    21:00 +24°C° 0.8 mm 2 mps 666 mmHg 76%
    22:00 +24°C° 0.8 mm 2 mps 667 mmHg 79%
    23:00 +24°C° 0.1 mm 2 mps 666 mmHg 80%

    Day after tomorrow, 29 January, Wednesday

    Time Temperature Precipitation Wind Pressure Humidity
    00:00 +24°C° 0.1 mm 2 mps 666 mmHg 81%
    01:00 +24°C° 0.1 mm 2 mps 666 mmHg 82%
    02:00 +23°C° 0 mm 1 mps 666 mmHg 82%
    03:00 +23°C° 0 mm 1 mps 666 mmHg 82%
    04:00 +23°C° 0 mm 1 mps 666 mmHg 82%
    05:00 +23°C° 0 mm 1 mps 666 mmHg 82%
    06:00 +24°C° 0 mm 1 mps 667 mmHg 81%
    07:00 +24°C° 0 mm 1 mps 667 mmHg 81%
    08:00 +26°C° 0 mm 1 mps 668 mmHg 69%
    09:00 +29°C° 0 mm 1 mps 668 mmHg 57%
    10:00 +31°C° 0 mm 1 mps 669 mmHg 44%
    11:00 +34°C° 0 mm 2 mps 668 mmHg 40%
    12:00 +35°C° 0 mm 2 mps 668 mmHg 35%
    13:00 +36°C° 0 mm 3 mps 667 mmHg 31%
    14:00 +36°C° 0 mm 3 mps 667 mmHg 31%
    15:00 +35°C° 0 mm 3 mps 666 mmHg 31%
    16:00 +35°C° 0 mm 2 mps 666 mmHg 32%
    17:00 +34°C° 0 mm 2 mps 666 mmHg 35%
    18:00 +31°C° 0 mm 2 mps 666 mmHg 39%
    19:00 +30°C° 0 mm 1 mps 666 mmHg 42%
    20:00 +29°C° 0 mm 2 mps 666 mmHg 48%
    21:00 +28°C° 0 mm 2 mps 666 mmHg 53%
    22:00 +27°C° 0 mm 2 mps 667 mmHg 59%
    23:00 +26°C° 0.1 mm 2 mps 667 mmHg 62%

    30 January, Thursday

    Time Temperature Precipitation Wind Pressure Humidity
    00:00 +25°C° 0.1 mm 2 mps 667 mmHg 66%
    01:00 +24°C° 0.1 mm 2 mps 666 mmHg 70%
    02:00 +24°C° 0.4 mm 2 mps 666 mmHg 73%
    03:00 +23°C° 0.4 mm 1 mps 666 mmHg 77%
    04:00 +23°C° 0.4 mm 1 mps 666 mmHg 81%
    05:00 +23°C° 0.1 mm 1 mps 666 mmHg 79%
    06:00 +23°C° 0.1 mm 1 mps 667 mmHg 76%
    07:00 +24°C° 0.1 mm 1 mps 667 mmHg 74%
    08:00 +26°C° 0 mm 1 mps 668 mmHg 65%
    09:00 +28°C° 0 mm 1 mps 668 mmHg 57%
    10:00 +31°C° 0 mm 2 mps 669 mmHg 48%
    11:00 +32°C° 0 mm 2 mps 668 mmHg 44%
    12:00 +34°C° 0 mm 2 mps 668 mmHg 39%
    13:00 +35°C° 0 mm 3 mps 668 mmHg 35%
    14:00 +35°C° 0 mm 2 mps 667 mmHg 36%
    15:00 +34°C° 0 mm 2 mps 666 mmHg 38%
    16:00 +34°C° 0 mm 2 mps 666 mmHg 39%
    17:00 +31°C° 0.7 mm 2 mps 665 mmHg 48%
    18:00 +28°C° 0.7 mm 2 mps 665 mmHg 58%
    19:00 +26°C° 0.7 mm 2 mps 665 mmHg 67%
    20:00 +26°C° 0.7 mm 2 mps 666 mmHg 68%
    21:00 +25°C° 0.7 mm 1 mps 667 mmHg 70%
    22:00 +25°C° 0.7 mm 1 mps 667 mmHg 71%
    23:00 +24°C° 0.9 mm 1 mps 667 mmHg 75%

    31 January, Friday

    Time Temperature Precipitation Wind Pressure Humidity
    00:00 +24°C° 0.9 mm 1 mps 667 mmHg 78%
    01:00 +23°C° 0.9 mm 2 mps 667 mmHg 82%
    02:00 +23°C° 1 mm 2 mps 667 mmHg 84%
    03:00 +23°C° 1 mm 1 mps 667 mmHg 86%
    04:00 +23°C° 1 mm 1 mps 667 mmHg 87%
    05:00 +23°C° 0.7 mm 1 mps 667 mmHg 86%
    06:00 +23°C° 0.7 mm 1 mps 667 mmHg 86%
    07:00 +23°C° 0.7 mm 1 mps 668 mmHg 85%
    08:00 +24°C° 0.4 mm 2 mps 668 mmHg 80%
    09:00 +25°C° 0.4 mm 2 mps 668 mmHg 75%
    10:00 +26°C° 0.4 mm 3 mps 669 mmHg 71%
    11:00 +28°C° 0.3 mm 2 mps 668 mmHg 64%
    12:00 +29°C° 0.3 mm 2 mps 668 mmHg 57%
    13:00 +31°C° 0.3 mm 1 mps 668 mmHg 51%
    14:00 +30°C° 0.9 mm 1 mps 667 mmHg 53%
    15:00 +29°C° 0.9 mm 1 mps 666 mmHg 56%
    16:00 +28°C° 0.9 mm 1 mps 666 mmHg 58%
    17:00 +27°C° 0.6 mm 2 mps 666 mmHg 66%
    18:00 +25°C° 0.6 mm 4 mps 666 mmHg 74%
    19:00 +22°C° 0.6 mm 5 mps 666 mmHg 81%
    20:00 +22°C° 0.5 mm 4 mps 667 mmHg 80%
    21:00 +23°C° 0.5 mm 2 mps 667 mmHg 78%
    22:00 +23°C° 0.5 mm 1 mps 667 mmHg 77%
    23:00 +23°C° 0.4 mm 1 mps 667 mmHg 78%

    1 February, Saturday

    Time Temperature Precipitation Wind Pressure Humidity
    00:00 +23°C° 0.4 mm 1 mps 667 mmHg 80%
    01:00 +23°C° 0.4 mm 1 mps 667 mmHg 81%
    02:00 +23°C° 0 mm 1 mps 666 mmHg 82%
    03:00 +22°C° 0 mm 1 mps 666 mmHg 83%
    04:00 +22°C° 0 mm 1 mps 666 mmHg 84%
    05:00 +22°C° 0.1 mm 1 mps 666 mmHg 84%
    06:00 +22°C° 0.1 mm 1 mps 667 mmHg 84%
    07:00 +23°C° 0.1 mm 1 mps 667 mmHg 83%
    08:00 +25°C° 0 mm 1 mps 667 mmHg 75%
    09:00 +27°C° 0 mm 1 mps 668 mmHg 67%
    10:00 +29°C° 0 mm 1 mps 668 mmHg 58%
    11:00 +30°C° 0.5 mm 2 mps 668 mmHg 54%
    12:00 +31°C° 0.5 mm 3 mps 667 mmHg 49%
    13:00 +33°C° 0.5 mm 3 mps 667 mmHg 45%
    14:00 +33°C° 0 mm 3 mps 666 mmHg 45%
    15:00 +31°C° 0 mm 3 mps 666 mmHg 44%
    16:00 +31°C° 0 mm 2 mps 665 mmHg 44%
    17:00 +30°C° 0 mm 2 mps 665 mmHg 49%
    18:00 +29°C° 0 mm 2 mps 665 mmHg 54%
    19:00 +27°C° 0 mm 2 mps 665 mmHg 59%
    20:00 +26°C° 0.1 mm 2 mps 666 mmHg 64%
    21:00 +25°C° 0.1 mm 2 mps 666 mmHg 69%
    22:00 +24°C° 0.1 mm 2 mps 666 mmHg 74%
    23:00 +24°C° 0.5 mm 2 mps 666 mmHg 79%
    Show more